User: anonymous   Login
Location: Holcomb Observatory
(44.4922°N, 73.1654°W)
Time: 13:52:07
(UTC-04:00)
Language:

SL-16 R/B - Orbit

View from above orbital plane
View from above orbital plane
View from above satellite
View from above satellite

Ground track
Ground track

The orbit data is extracted from the following two-line orbital elements,

1 27006U 01056F   14295.48567547  .00000045  00000-0  97375-4 0  2722
2 27006 099.1785 097.6140 0013876 321.5592 104.7494 13.70925674643764
Epoch (UTC): 22 October 2014 11:39:22
Eccentricity: 0.0013876
inclination: 99.1785°
perigee height: 986 km
apogee height: 1006 km
right ascension of ascending node: 97.6140°
argument of perigee: 321.5592°
revolutions per day: 13.70925674
mean anomaly at epoch: 104.7494°
orbit number at epoch: 64376

The dashed part of the orbit path shows where the satellite is in the earth's shadow,  

DLR